Weather Service Report


435 
ASUS44 KFWD 251815
RWRTX 
NORTH TEXAS HOURLY WEATHER ROUNDUP
NATIONAL WEATHER SERVICE FORT WORTH TX
100 PM CDT THU AUG 25 2016

NOTE: "FAIR" INDICATES FEW OR NO CLOUDS BELOW 12,000 FEET WITH NO
SIGNIFICANT WEATHER AND/OR OBSTRUCTIONS TO VISIBILITY.

TXZ118-119-251900-
DALLAS/FORT WORTH METROPLEX
  
CITY           SKY/WX    TMP DP  RH WIND       PRES   REMARKS
DFW AIRPORT    PTSUNNY   92  65  40 S8        30.08F HX  94           
6HR MIN TEMP:  75; 6HR MAX TEMP:  92;                                

DALLAS LOVE    MOSUNNY   92  68  45 SW9       30.08F HX  96           
6HR MIN TEMP:  78; 6HR MAX TEMP:  92;                                

FTW MEACHAM    SUNNY     92  67  43 S8        30.08F HX  95           
6HR MIN TEMP:  75; 6HR MAX TEMP:  93;                                

DAL-EXECUTIVE  MOSUNNY   90  71  53 VRB7      30.08F HX  96           
6HR MIN TEMP:  75; 6HR MAX TEMP:  91;                                

FTW-ALLIANCE   MOSUNNY   92  66  42 S5        30.08F HX  94           
6HR MIN TEMP:  72; 6HR MAX TEMP:  92;                                

FTW-NAS-JRB    SUNNY     92  65  40 S10       30.08F HX  94           
6HR MIN TEMP:  75; 6HR MAX TEMP:  93;                                

FTW-SPINKS     SUNNY     91  64  40 S6        30.10F HX  93           
ARLINGTON      SUNNY     91  68  46 VRB3      30.08F HX  95           
6HR MIN TEMP:  72; 6HR MAX TEMP:  91;                                

GRAND PRAIRIE  SUNNY     90  66  45 S12       30.09F HX  92           
ADDISON        MOSUNNY   91  68  46 CALM      30.09F HX  95           
MESQUITE       SUNNY     90  72  55 S9        30.09F HX  96           
LANCASTER      SUNNY     92  69  48 SW7       30.09F HX  97           
6HR MIN TEMP:  73; 6HR MAX TEMP:  92;                                

$$

TXZ091>094-102>105-117-120-121-131>134-251900-
NORTH CENTRAL TEXAS
  
CITY           SKY/WX    TMP DP  RH WIND       PRES   REMARKS
SHRMAN/DENISON MOSUNNY   91  67  45 S9        30.10F HX  94           
6HR MIN TEMP:  74; 6HR MAX TEMP:  91;                                

GAINESVILLE      N/A     88  68  52 S10       30.11F HX  91           
6HR MIN TEMP:  70; 6HR MAX TEMP:  88;                                

BOWIE          SUNNY     89  68  50 CALM      30.10F HX  92           
6HR MIN TEMP:  71; 6HR MAX TEMP:  89;                                

BRIDGEPORT     SUNNY     89  69  53 CALM      30.11F HX  93           
6HR MIN TEMP:  71; 6HR MAX TEMP:  89;                                

DECATUR        SUNNY     87  65  47 SW5       30.11F                  
6HR MIN TEMP:  74; 6HR MAX TEMP:  87;                                

DENTON         SUNNY     90  67  46 S8        30.08F HX  93           
6HR MIN TEMP:  72; 6HR MAX TEMP:  90;                                

MCKINNEY       SUNNY     90  68  48 VRB7      30.08F HX  94           
6HR MIN TEMP:  73; 6HR MAX TEMP:  91;                                

GREENVILLE     SUNNY     90  68  48 S8        30.10F HX  93           
ROCKWALL       SUNNY     90  71  54 S7G23     30.08F HX  96           
6HR MIN TEMP:  75; 6HR MAX TEMP:  90;                                

TERRELL        SUNNY     90  73  57 S9        30.09F HX  98           
6HR MIN TEMP:  75; 6HR MAX TEMP:  90;                                

WAXAHACHIE     SUNNY     89  71  55 SE6       30.10F HX  95           
6HR MIN TEMP:  72; 6HR MAX TEMP:  89;                                

CLEBURNE       SUNNY     90  70  51 S8        30.11F HX  95           
GRANBURY       SUNNY     93  63  36 S5        30.09F HX  93           
6HR MIN TEMP:  75; 6HR MAX TEMP:  93;                                

$$

TXZ083>090-098>101-113>116-127>130-139>142-154-155-251900-
WESTERN NORTH TEXAS
  
CITY           SKY/WX    TMP DP  RH WIND       PRES   REMARKS
WICHITA FALLS  MOSUNNY   91  67  44 S9        30.06F HX  94           
6HR MIN TEMP:  72; 6HR MAX TEMP:  92;                                

WF-KICKAPOO    MOSUNNY   91  64  39 NW5       30.08F HX  93           
6HR MIN TEMP:  75; 6HR MAX TEMP:  92;                                

VERNON         SUNNY     91  59  33 S6        30.08F HX  90           
ABILENE        SUNNY     89  63  41 S10       30.11F HX  90           
6HR MIN TEMP:  71; 6HR MAX TEMP:  89;                                

ABILENE-DYESS  SUNNY     90  62  40 S14       30.09F HX  90           
6HR MIN TEMP:  71; 6HR MAX TEMP:  90;                                

CISCO          SUNNY     90  66  45 S10       30.13F HX  92           
BRECKENRIDGE   SUNNY     91  63  40 SW7       30.09F HX  92           
6HR MIN TEMP:  73; 6HR MAX TEMP:  91;                                

GRAHAM         SUNNY     90  70  50 S7        30.08F HX  95           
MINERAL WELLS  SUNNY     88  66  48 CALM      30.08F HX  90           
6HR MIN TEMP:  69; 6HR MAX TEMP:  90;                                

STEPHENVILLE   SUNNY     88  67  49 CALM      30.14F HX  91           
6HR MIN TEMP:  70; 6HR MAX TEMP:  88;                                

COMANCHE       SUNNY     88  66  48 SW5       30.12F HX  91           
6HR MIN TEMP:  71; 6HR MAX TEMP:  88;                                

BROWNWOOD      SUNNY     86  64  48 S6        30.11F                  
COLEMAN        SUNNY     89  61  39 S10       30.12F                  
6HR MIN TEMP:  69; 6HR MAX TEMP:  89;                                

$$

TXZ143>147-156>162-174-175-251900-
CENTRAL TEXAS
  
CITY           SKY/WX    TMP DP  RH WIND       PRES   REMARKS
WACO           MOSUNNY   88  72  58 S7        30.09F HX  94           
6HR MIN TEMP:  72; 6HR MAX TEMP:  89;                                

WACO-TSTC      SUNNY     90  72  55 S7        30.10F HX  96           
WACO-MCGREGOR  PTSUNNY   90  73  57 SE7       30.09F HX  98           
6HR MIN TEMP:  72; 6HR MAX TEMP:  90;                                

HILLSBORO      SUNNY     89  69  51 S5        30.10F HX  93           
6HR MIN TEMP:  69; 6HR MAX TEMP:  89;                                

CORSICANA      MOSUNNY   88  73  61 SW7       30.11F HX  95           
6HR MIN TEMP:  76; 6HR MAX TEMP:  89;                                

MEXIA          MOSUNNY   86  74  67 CALM      30.10F HX  93           
6HR MIN TEMP:  74; 6HR MAX TEMP:  86;                                

HEARNE         PTSUNNY   89  74  63 SE5       30.09F HX  98           
6HR MIN TEMP:  74; 6HR MAX TEMP:  89;                                

CAMERON        PTSUNNY   87  75  66 CALM      30.09F HX  97           
6HR MIN TEMP:  74; 6HR MAX TEMP:  88;                                

TEMPLE         PTSUNNY   89  73  59 VRB7      30.10F HX  97           
6HR MIN TEMP:  71; 6HR MAX TEMP:  89;                                

KILLEEN        SUNNY     87  70  57 SE7       30.09F HX  91           
6HR MIN TEMP:  72; 6HR MAX TEMP:  87;                                

KILLEEN-SKYLRK SUNNY     88  71  57 CALM      30.10F HX  94           
6HR MIN TEMP:  72; 6HR MAX TEMP:  88;                                

FORT HOOD      MOSUNNY   87  70  56 SE8       30.07F HX  92           
6HR MIN TEMP:  72; 6HR MAX TEMP:  87;                                

GATESVILLE     SUNNY     90  66  45 S5        30.12F HX  92           
HAMILTON       SUNNY     89  66  46 S8        30.13F HX  91           
6HR MIN TEMP:  69; 6HR MAX TEMP:  89;                                

LAMPASAS       SUNNY     91  69  49 S6        30.10F HX  95           
6HR MIN TEMP:  71; 6HR MAX TEMP:  91;                                

$$

TXZ095>097-106>112-122>126-135>138-148>153-164>167-251900-
EAST TEXAS
  
CITY           SKY/WX    TMP DP  RH WIND       PRES   REMARKS
PARIS          SUNNY     91  72  52 SW9       30.10F HX  98           
6HR MIN TEMP:  73; 6HR MAX TEMP:  91;                                

SULPHUR SPRNGS MOSUNNY   90  71  53 SW5       30.11F HX  96           
6HR MIN TEMP:  77; 6HR MAX TEMP:  90;                                

MOUNT PLEASANT SUNNY     90  71  52 W5        30.11F HX  96           
6HR MIN TEMP:  74; 6HR MAX TEMP:  91;                                

GILMER         CLOUDY    88  73  61 CALM      30.10F HX  96           
6HR MIN TEMP:  75; 6HR MAX TEMP:  89;                                

TYLER          MOSUNNY   89  72  56 CALM      30.10F HX  96           
6HR MIN TEMP:  76; 6HR MAX TEMP:  89;                                

LONGVIEW         N/A    N/A N/A N/A MISG      30.09F                  
MARSHALL       PTSUNNY   87  74  64 CALM      30.11F HX  96           
6HR MIN TEMP:  73; 6HR MAX TEMP:  87;                                

ATHENS         PTSUNNY   86  72  62 CALM      30.09F HX  92           
PALESTINE      PTSUNNY   86  75  68 S3        30.12S HX  95           
JACKSONVILLE   MOSUNNY   87  71  57 CALM      30.14S HX  93           
HENDERSON      MOSUNNY   88  71  57 CALM      30.11F HX  94           
6HR MIN TEMP:  74; 6HR MAX TEMP:  89;                                

CENTER         PTCLDY    91  77  63 S3        30.10F HX 103           
6HR MIN TEMP:  77; 6HR MAX TEMP:  91;                                

NACOGDOCHES    PTSUNNY  N/A N/A N/A SW5       30.08F                  
LUFKIN         PTSUNNY   89  72  56 VRB3      30.09F HX  96           
6HR MIN TEMP:  73; 6HR MAX TEMP:  90;                                

$$

SUPPLEMENTAL OBSERVATIONS (CENTRAL)
  
CITY           SKY/WX    TMP DP  RH WIND       PRES   REMARKS
CADDO GRASSLND   N/A     91  72  52 S6          N/A  HX  98           
PAT MAYSE LAKE   N/A     88  72  58 S6          N/A  HX  94           
GREENVILLE       N/A     91  73  55 SW7         N/A  HX 100           
CEDAR HILL       N/A     91  68  46 S6          N/A  HX  95           
ATHENS           N/A     90  75  62 SW2         N/A  HX 100           
LAKE LIMESTONE   N/A     90  75  62 S3          N/A  HX 100           
MCGREGOR         N/A     90  75  62 S5G14       N/A  HX 100           
$$

SUPPLEMENTAL OBSERVATIONS (WEST)
  
CITY           SKY/WX    TMP DP  RH WIND       PRES   REMARKS
MILLERS CREEK    N/A     91  66  43 S12         N/A  HX  94           
LBJ GRASSLAND    N/A     90  68  48 W3   C1F1C2F2C3F3C4F4C5F5C6F6C7F7C8F8C9!

Return to Home page


Western Regional Climate Center, wrcc@dri.edu